This is the latest recevied weather packets stored in our database for station/object K0NV. If no packets are shown the sender has not sent any weather packets the latest 10 day(s).
| Time | Temp. | Humidity | Pressure | Rain* | Wind** | Luminosity | Snow |
|---|---|---|---|---|---|---|---|
| 1778023058 | 7.78° C | 99% | 1010.6 hPa | 0 mm | - | 14 W/m² | - |
| 1778022758 | 7.78° C | 99% | 1010.5 hPa | 0 mm | - | 16 W/m² | - |
| 1778022455 | 7.78° C | 99% | 1010.2 hPa | 0 mm | - | 14 W/m² | - |
| 1778022152 | 7.78° C | 99% | 1010.1 hPa | 0 mm | - | 14 W/m² | - |
| 1778021848 | 7.78° C | 98% | 1009.9 hPa | 0 mm | - | 42 W/m² | - |
| 1778021546 | 7.78° C | 98% | 1009.8 hPa | 0 mm | - | 41 W/m² | - |
| 1778021241 | 7.78° C | 97% | 1010 hPa | 0 mm | - | 22 W/m² | - |
| 1778020939 | 7.78° C | 96% | 1010.3 hPa | 0 mm | - | 49 W/m² | - |
| 1778020636 | 7.78° C | 96% | 1010.3 hPa | 0 mm | - | 32 W/m² | - |
| 1778020332 | 7.78° C | 95% | 1010.5 hPa | 1.27 mm | - | 23 W/m² | - |
| 1778020028 | 7.78° C | 95% | 1010.5 hPa | 1.27 mm | - | 29 W/m² | - |
| 1778019724 | 7.78° C | 95% | 1010.5 hPa | 0 mm | - | 29 W/m² | - |
| 1778019422 | 8.33° C | 95% | 1010.4 hPa | 0 mm | - | 26 W/m² | - |
| 1778019118 | 8.33° C | 96% | 1010.4 hPa | 0 mm | - | 15 W/m² | - |
| 1778018815 | 8.89° C | 96% | 1010.2 hPa | 0 mm | - | 35 W/m² | - |
| 1778018513 | 8.89° C | 95% | 1010.1 hPa | 0 mm | - | 38 W/m² | - |
| 1778018210 | 8.89° C | 95% | 1009.9 hPa | 0 mm | - | 61 W/m² | - |
| 1778017908 | 8.89° C | 94% | 1010.1 hPa | 0 mm | - | 84 W/m² | - |
| 1778017606 | 8.89° C | 93% | 1010.1 hPa | 0 mm | - | 32 W/m² | - |
| 1778017303 | 8.89° C | 93% | 1010.2 hPa | 0 mm | - | 44 W/m² | - |
| 1778017000 | 8.89° C | 92% | 1010.1 hPa | 0 mm | - | 68 W/m² | - |
| 1778016697 | 8.89° C | 92% | 1010 hPa | 0 mm | - | 54 W/m² | - |
| 1778016393 | 8.89° C | 92% | 1010.3 hPa | 0 mm | - | 62 W/m² | - |
| 1778016091 | 8.89° C | 92% | 1010.4 hPa | 0 mm | - | 28 W/m² | - |
| 1778015788 | 8.89° C | 92% | 1010.6 hPa | 0 mm | - | 29 W/m² | - |
* Rain latest hour (hover to see other rain measurements)
** Current wind speed in m/s (hover to see current wind gust speed)